SWA2750 KHOU-KAUS

Flight info

Callsign SWA2750
Flight time 0h 36m
Altitude 14000
Route KHOU/13R N0358F140 RETYR8 MNURE WLEEE7 KAUS/36L
Aircraft B38M/M-SDE2E3FGHIRWXY/LB1

Departure

Time 2026-04-30 22:20
Airport William P. Hobby Airport (KHOU)

Arrival

Time 2026-04-30 22:56
Airport Austin Bergstrom International Airport (KAUS)
Time Latitude Longitude Altitude Speed Heading
2026-04-30 21:57 29.65217 -95.27539 48 ft 0 kts 22°
2026-04-30 22:12 29.65208 -95.27543 48 ft 2 kts 22°
2026-04-30 22:13 29.65194 -95.27550 48 ft 2 kts 23°
2026-04-30 22:13 29.65180 -95.27557 48 ft 2 kts 23°
2026-04-30 22:13 29.65167 -95.27563 48 ft 1 kts 18°
2026-04-30 22:13 29.65154 -95.27566 48 ft 1 kts 356°
2026-04-30 22:14 29.65144 -95.27564 48 ft 0 kts 315°
2026-04-30 22:14 29.65146 -95.27567 48 ft 0 kts 309°
2026-04-30 22:17 29.65097 -95.27757 48 ft 16 kts 271°
2026-04-30 22:17 29.65109 -95.27896 48 ft 16 kts 300°
2026-04-30 22:17 29.65222 -95.28093 48 ft 13 kts 281°
2026-04-30 22:18 29.65276 -95.28170 48 ft 11 kts 315°
2026-04-30 22:18 29.65294 -95.28314 48 ft 8 kts 245°
2026-04-30 22:19 29.65226 -95.28442 48 ft 11 kts 263°
2026-04-30 22:19 29.65222 -95.28530 48 ft 10 kts 257°
2026-04-30 22:19 29.65191 -95.28564 48 ft 10 kts 198°
2026-04-30 22:20 29.65055 -95.28509 48 ft 39 kts 135°
2026-04-30 22:20 29.63925 -95.27177 60 ft 190 kts 133°
2026-04-30 22:20 29.62934 -95.26071 794 ft 198 kts 135°
2026-04-30 22:21 29.61792 -95.25245 1687 ft 206 kts 165°
2026-04-30 22:21 29.60342 -95.25376 2318 ft 224 kts 198°
2026-04-30 22:21 29.58789 -95.25795 2977 ft 236 kts 180°
2026-04-30 22:21 29.57171 -95.25379 3638 ft 249 kts 150°
2026-04-30 22:22 29.55875 -95.24051 4361 ft 260 kts 122°
2026-04-30 22:22 29.55240 -95.22078 5080 ft 273 kts 95°
2026-04-30 22:22 29.55488 -95.19939 6012 ft 276 kts 68°
2026-04-30 22:22 29.56543 -95.18133 6817 ft 284 kts 43°
2026-04-30 22:23 29.58250 -95.16969 7554 ft 293 kts 17°
2026-04-30 22:23 29.60279 -95.16748 8359 ft 297 kts 350°
2026-04-30 22:23 29.62203 -95.17531 9191 ft 297 kts 324°
2026-04-30 22:23 29.63664 -95.19154 10046 ft 292 kts 300°
2026-04-30 22:24 29.64657 -95.21142 10801 ft 295 kts 294°
2026-04-30 22:24 29.65580 -95.23302 11390 ft 306 kts 292°
2026-04-30 22:24 29.66518 -95.25563 11850 ft 321 kts 292°
2026-04-30 22:24 29.67497 -95.27923 12365 ft 332 kts 291°
2026-04-30 22:25 29.68511 -95.30349 12811 ft 345 kts 291°
2026-04-30 22:25 29.69558 -95.32823 13553 ft 345 kts 292°
2026-04-30 22:25 29.70619 -95.35317 13816 ft 348 kts 292°
2026-04-30 22:25 29.71673 -95.37789 13847 ft 346 kts 292°
2026-04-30 22:26 29.73778 -95.42730 13898 ft 345 kts 292°
2026-04-30 22:26 29.74845 -95.45233 13868 ft 343 kts 292°
2026-04-30 22:26 29.75881 -95.47671 13862 ft 345 kts 292°
2026-04-30 22:27 29.76945 -95.50171 13872 ft 345 kts 292°
2026-04-30 22:27 29.77982 -95.52618 13866 ft 344 kts 292°
2026-04-30 22:27 29.80091 -95.57589 13874 ft 347 kts 292°
2026-04-30 22:28 29.82237 -95.62604 13874 ft 352 kts 292°
2026-04-30 22:28 29.83310 -95.65112 13867 ft 350 kts 292°
2026-04-30 22:29 29.83553 -95.73081 13858 ft 338 kts 254°
2026-04-30 22:29 29.82973 -95.75691 13846 ft 337 kts 257°
2026-04-30 22:30 29.83654 -95.86423 13859 ft 347 kts 284°
2026-04-30 22:31 29.86049 -95.94289 13861 ft 347 kts 286°
2026-04-30 22:32 29.88376 -96.02194 13864 ft 347 kts 285°
2026-04-30 22:32 29.89898 -96.07459 13849 ft 347 kts 285°
2026-04-30 22:33 29.92193 -96.15402 13848 ft 346 kts 285°
2026-04-30 22:33 29.93686 -96.20663 13852 ft 346 kts 283°
2026-04-30 22:34 29.95075 -96.28768 13858 ft 344 kts 277°
2026-04-30 22:35 29.95860 -96.34219 13860 ft 343 kts 277°
2026-04-30 22:36 29.97560 -96.45076 13855 ft 346 kts 278°
2026-04-30 22:36 29.97988 -96.47786 13853 ft 345 kts 278°
2026-04-30 22:37 29.99206 -96.55537 13443 ft 320 kts 277°
2026-04-30 22:37 29.99611 -96.58066 13301 ft 322 kts 278°
2026-04-30 22:37 30.00548 -96.63103 13050 ft 323 kts 279°
2026-04-30 22:38 30.01514 -96.68145 12787 ft 321 kts 279°
2026-04-30 22:38 30.02446 -96.73113 12529 ft 312 kts 279°
2026-04-30 22:39 30.02896 -96.75549 12392 ft 308 kts 279°
2026-04-30 22:39 30.04232 -96.82800 12006 ft 310 kts 280°
2026-04-30 22:40 30.05794 -96.89912 11287 ft 297 kts 287°
2026-04-30 22:41 30.07855 -96.96485 10444 ft 290 kts 287°
2026-04-30 22:41 30.09176 -97.00888 9866 ft 290 kts 287°
2026-04-30 22:42 30.11293 -97.09715 8716 ft 281 kts 268°
2026-04-30 22:43 30.11011 -97.14128 8176 ft 268 kts 265°
2026-04-30 22:43 30.10720 -97.18301 7725 ft 265 kts 266°
2026-04-30 22:44 30.10477 -97.22531 7233 ft 255 kts 267°
2026-04-30 22:45 30.10036 -97.30656 6273 ft 249 kts 268°
2026-04-30 22:45 30.09832 -97.34563 5796 ft 245 kts 269°
2026-04-30 22:46 30.09642 -97.38448 5342 ft 243 kts 269°
2026-04-30 22:47 30.09258 -97.46175 4412 ft 241 kts 269°
2026-04-30 22:47 30.09058 -97.49957 3998 ft 229 kts 269°
2026-04-30 22:48 30.08618 -97.53561 3975 ft 229 kts 245°
2026-04-30 22:49 30.04921 -97.56372 3987 ft 211 kts 182°
2026-04-30 22:49 30.00581 -97.56291 3692 ft 206 kts 182°
2026-04-30 22:50 29.98460 -97.61369 3205 ft 195 kts 306°
2026-04-30 22:51 30.00495 -97.63174 2809 ft 182 kts 351°
2026-04-30 22:51 30.02768 -97.62583 2478 ft 166 kts 31°
2026-04-30 22:52 30.03871 -97.62176 2485 ft 170 kts 12°
2026-04-30 22:52 30.06102 -97.63142 2482 ft 177 kts 327°
2026-04-30 22:53 30.07876 -97.65164 2450 ft 182 kts 316°
2026-04-30 22:53 30.09553 -97.67312 2167 ft 175 kts 327°
2026-04-30 22:53 30.10639 -97.67795 1959 ft 160 kts
2026-04-30 22:54 30.12697 -97.68030 1242 ft 140 kts
2026-04-30 22:55 30.15609 -97.67808 980 ft 141 kts
2026-04-30 22:55 30.17604 -97.67845 632 ft 144 kts
2026-04-30 22:56 30.19274 -97.67880 499 ft 66 kts 360°
2026-04-30 22:56 30.19886 -97.67657 505 ft 17 kts 87°
2026-04-30 22:57 30.19892 -97.67392 503 ft 14 kts 89°
2026-04-30 22:57 30.20033 -97.67336 505 ft 13 kts 357°
2026-04-30 22:58 30.20090 -97.67276 504 ft 1 kts 89°
2026-04-30 22:59 30.20090 -97.67168 504 ft 13 kts 87°
2026-04-30 22:59 30.20080 -97.66871 501 ft 12 kts 108°